Home > Weather > Bloomington > Past weeks

Flag for USA Past Weather in Bloomington, Illinois, USA — Yesterday and Last 2 Weeks

Now
73 °F

Clear.


Feels Like: 71 °F
Forecast: 73 / 88 °F
Wind: 9 mph from South

Location: Bloomington / Normal

Current Time: Jun 26, 2016 at 3:15:11 AM

Latest Report: Jun 26, 2016 at 1:56 AM


Visibility: 10 mi

Pressure: 30.04 "Hg

Humidity: 88%

Dew Point: 69 °F

Location of BloomingtonLocation

Past Weather in Bloomington — Graph

°F

Bloomington Temperature Yesterday

Maximum temperature yesterday: 90 °F (at 3:56 PM)
Minimum temperature yesterday: 68 °F (at 5:56 AM)
Average temperature yesterday: 80 °F

High & Low Weather Summary for the Past Weeks

 TemperatureHumidityPressure
High91 °F (Jun 11, 12:56 PM)97% (Jun 15, 5:56 AM)30.29 "Hg (Jun 15, 5:56 AM)
Low60 °F (Jun 13, 2:56 AM)33% (Jun 12, 7:56 PM)29.78 "Hg (Jun 22, 9:56 PM)
Average77 °F67%30.03 "Hg
* Reported Jun 11 1:56 AM — Jun 26 1:56 AM, Bloomington, Weather by CustomWeather, © 2016

Note: Actual official high and low records may vary slightly from our data, if they occured in-between our weather recording intervals... More about our weather records

Advertising

Bloomington Weather History for the Previous 24 Hours

Scroll right to see more
 ConditionsComfort  
Time TempWeatherWind HumidityBarometerVisibility
1:56 AM
Sun, Jun 26
73 °FClear.9 mph88%30.04 "Hg10 mi
12:56 AM74 °FClear.9 mph88%30.06 "Hg10 mi
11:56 PM
Sat, Jun 25
76 °FClear.7 mph82%30.06 "Hg10 mi
10:56 PM78 °FClear.8 mph79%30.05 "Hg10 mi
8:56 PM80 °FSunny.7 mph76%30.03 "Hg10 mi
7:56 PM84 °FSunny.7 mph70%30.03 "Hg10 mi
6:56 PM87 °FSunny.9 mph63%30.05 "Hg10 mi
5:56 PM89 °FSunny.9 mph57%30.04 "Hg10 mi
4:56 PM90 °FScattered clouds.12 mph56%30.05 "Hg10 mi
3:56 PM90 °FScattered clouds.14 mph57%30.06 "Hg10 mi
2:56 PM89 °FPassing clouds.9 mph57%30.08 "Hg10 mi
1:56 PM89 °FPassing clouds.13 mph55%30.08 "Hg10 mi
12:56 PM87 °FSunny.12 mph57%30.10 "Hg10 mi
11:56 AM86 °FSunny.12 mph61%30.11 "Hg10 mi
10:56 AM83 °FSunny.12 mph68%30.12 "Hg10 mi
9:56 AM81 °FSunny.12 mph72%30.14 "Hg10 mi
8:56 AM79 °FSunny.12 mph74%30.14 "Hg10 mi
7:56 AM74 °FSunny.9 mph82%30.14 "Hg10 mi
6:56 AM71 °FSunny.9 mph87%30.13 "Hg10 mi
5:56 AM68 °FClear.6 mph90%30.12 "Hg10 mi
4:56 AM69 °FClear.8 mph87%30.12 "Hg10 mi
3:56 AM70 °FClear.9 mph87%30.11 "Hg10 mi
Weather by CustomWeather, © 2016

See weather overviewHow to use our weather pages